CAPE
729 961 1010 1119 1200 971 944 531 184 102 122 115 121 110 111 148 422 326 421 568 587 513 446 464 328 229 63 122 26 7 12 62 20 12 17 10 335 275 187 221 158 204 131
735 885 1157 1165 955 960 596 358 240 114 16 44 54 55 109 351 399 406 383 369 350 307 250 130 109 40 50 4 2 6 6 6 21 15 14 15 197 241 220 238 133 71 172
997 1114 1237 1073 1010 869 730 547 236 73 97 166 175 157 183 268 354 377 436 357 171 13 16 8 1 3 10 10 27 20 14 19 51 10 6 14 39 116 200 215 187 215 136
1387 896 755 619 573 469 341 54 61 91 31 95 143 179 245 301 222 56 0 0 0 0 0 2 3 7 16 17 26 39 68 91 22 11 13 95 54 72 355 124 70 194 177
674 552 540 462 459 396 259 132 105 76 82 124 147 162 116 14 0 0 0 0 1 2 0 0 0 0 2 2 13 14 84 23 28 145 48 95 188 136 98 159 156 72 113
441 395 319 190 90 84 52 21 0 0 0 0 0 0 0 0 0 0 0 0 0 0 0 0 2 1 0 1 5 9 46 66 95 141 67 44 151 94 276 304 164 71 4
329 89 44 29 10 0 0 0 0 0 0 0 0 0 0 0 0 0 0 0 0 0 0 0 0 2 3 0 1 15 50 68 95 64 97 77 95 152 148 248 167 120 32
3 0 0 0 0 0 0 0 0 0 0 0 0 0 0 0 0 0 0 0 0 0 0 3 4 0 0 2 3 9 10 23 22 30 4 6 31 59 120 161 119 72 32
0 0 0 0 0 0 0 0 0 0 0 0 0 0 0 0 0 0 0 0 0 0 0 0 0 0 5 15 15 24 28 33 42 40 31 27 21 13 13 7 16 42 12
0 0 0 0 0 0 0 0 0 0 0 0 0 0 0 0 0 0 0 0 0 0 0 0 0 12 33 38 23 40 45 45 44 11 11 25 36 14 5 4 7 23 24
0 0 0 0 0 0 0 0 0 0 0 0 0 0 0 0 0 0 0 0 0 0 0 0 3 11 40 46 40 48 22 26 44 65 38 46 90 100 25 29 45 52 0
0 0 0 0 0 0 0 0 0 0 7 3 1 0 0 0 0 0 0 0 0 0 0 21 26 17 7 42 45 34 36 70 61 36 28 16 12 44 18 4 0 0 2
0 0 0 0 0 0 0 0 1 10 4 1 2 0 0 0 0 0 0 0 0 14 30 29 20 22 0 24 3 36 55 54 34 38 25 24 2 0 0 2 2 18 15
0 0 0 0 0 0 0 0 0 0 0 1 0 0 0 0 0 0 0 0 0 4 21 11 27 5 9 0 3 39 43 41 23 19 14 23 20 1 0 1 2 4 22
0 0 0 0 0 0 0 0 0 0 0 0 0 0 0 0 0 0 1 12 6 7 24 8 16 8 0 28 38 28 48 48 38 20 25 31 30 24 1 0 2 2 21
0 0 0 0 0 0 0 0 0 0 0 0 0 0 0 0 0 4 24 24 15 34 35 6 7 0 0 0 52 53 25 13 12 12 26 29 39 40 14 0 1 12 18
0 0 0 0 0 0 0 0 0 0 0 0 0 0 0 0 0 0 21 37 24 5 10 2 0 0 0 40 45 39 18 8 6 7 7 16 33 43 25 0 0 2 11
0 0 0 0 0 0 0 0 0 0 0 0 0 0 0 0 0 0 10 8 9 2 0 0 0 0 2 19 11 19 10 5 5 3 0 4 21 58 43 0 0 6 29
0 0 0 0 0 0 0 0 0 0 0 0 0 0 0 0 0 1 0 0 0 3 0 0 0 0 5 13 2 0 0 0 0 0 0 0 0 30 45 33 12 0 6
0 0 0 0 0 0 0 0 0 0 0 0 0 0 0 0 0 0 0 1 2 8 0 0 0 0 0 0 0 0 0 0 0 0 0 0 0 10 34 49 43 27 0
0 0 0 0 0 0 0 0 0 0 0 0 0 0 0 0 0 0 0 0 0 0 0 0 0 0 0 0 0 0 0 0 0 0 0 0 0 0 7 21 50 41 55
0 0 0 0 0 0 0 0 0 0 0 0 0 0 0 0 0 0 0 0 0 0 0 0 0 0 0 0 0 0 0 0 0 0 0 0 0 0 1 5 18 40 27
0 0 0 0 0 0 0 0 0 0 0 0 0 0 0 0 0 0 0 0 0 0 0 0 0 0 0 0 0 0 0 0 0 0 0 0 0 0 0 0 0 11 32
0 0 0 0 0 0 0 0 0 0 0 0 0 0 0 0 0 0 0 0 0 0 0 0 0 0 0 0 0 0 0 0 0 0 0 0 0 0 0 0 0 0 5
0 0 0 0 0 0 0 0 0 0 0 0 0 0 0 0 0 0 0 0 0 0 0 0 0 0 0 0 0 0 0 0 0 0 0 0 0 0 0 0 0 0 0
0 0 0 0 0 0 0 0 0 0 0 0 0 0 0 0 0 0 0 0 0 0 0 0 0 0 0 0 0 0 0 0 0 0 0 0 0 0 0 0 0 0 0
CIN
-408 -299 -240 -186 -121 -94 -74 -74 -90 -74 -78 -224 -88 -109 -91 -155 -151 -151 -117 -59 -46 -51 -88 -50 -20 -48 -54 -18 -7 -0 -0 -39 -0 -0 -0 -81 -33 -20 -28 -22 -41 -40 -72
-328 -264 -182 -104 -91 -90 -109 -101 -29 -68 -34 -100 -125 -124 -155 -114 -106 -94 -52 -30 -17 -9 -7 -68 -62 -64 -25 -1 -0 -0 -0 -0 -0 -0 -0 -0 -41 -7 -3 -4 -12 -50 -29
-225 -158 -101 -87 -86 -75 -64 -65 -74 -83 -39 -70 -125 -111 -89 -91 -77 -41 -7 -4 -58 -190 -163 -116 -0 -0 -0 -0 -72 -16 -0 -5 -97 -0 -0 -0 -79 -40 -5 -2 -10 -9 -20
-85 -143 -136 -71 -67 -67 -63 -91 -15 -22 -148 -159 -125 -91 -78 -58 -39 -41 -0 -0 -0 -0 -0 -0 -0 -0 -0 -0 -0 -90 -108 -118 -36 -1 -112 -69 -66 -47 -0 -19 -34 -0 -2
-60 -57 -30 -18 -4 -5 -31 -162 -209 -189 -181 -133 -99 -81 -81 -19 -0 -0 -0 -0 -0 -0 -0 -0 -0 -0 -0 -0 -0 -0 -138 -188 -216 -117 -224 -58 -8 -4 -24 -2 -11 -35 -5
-77 -60 -45 -52 -277 -247 -233 -246 -0 -0 -0 -0 -0 -0 -0 -0 -0 -0 -0 -0 -0 -0 -0 -0 -0 -0 -0 -0 -0 -0 -162 -159 -123 -62 -38 -0 -2 -1 -0 -0 -5 -37 -0
-65 -160 -303 -302 -224 -0 -0 -0 -0 -0 -0 -0 -0 -0 -0 -0 -0 -0 -0 -0 -0 -0 -0 -0 -0 -0 -0 -0 -0 -3 -136 -69 -28 -3 -1 -36 -48 -16 -18 -0 -15 -15 -0
-153 -0 -0 -0 -0 -0 -0 -0 -0 -0 -0 -0 -0 -0 -0 -0 -0 -0 -0 -0 -0 -0 -0 -0 -0 -0 -0 -6 -4 -0 -2 -6 -3 -14 -0 -32 -17 -16 -1 -0 -0 -3 -5
-0 -0 -0 -0 -0 -0 -0 -0 -0 -0 -0 -0 -0 -0 -0 -0 -0 -0 -0 -0 -0 -0 -0 -0 -0 -0 -30 -24 -0 -3 -13 -25 -6 -8 -7 -5 -3 -20 -38 -3 -40 -2 -4
-0 -0 -0 -0 -0 -0 -0 -0 -0 -0 -0 -0 -0 -0 -0 -0 -0 -0 -0 -0 -0 -0 -0 -0 -0 -12 -9 -14 -10 -10 -12 -5 -8 -2 -14 -0 -42 -78 -76 -6 -0 -7 -11
-0 -0 -0 -0 -0 -0 -0 -0 -0 -0 -0 -0 -0 -0 -0 -0 -0 -0 -0 -0 -0 -0 -0 -4 -4 -0 -17 -17 -5 -2 -2 -2 -21 -29 -30 -66 -59 -55 -36 -16 -1 -1 -0
-0 -0 -0 -0 -0 -0 -0 -0 -0 -0 -10 -2 -0 -0 -0 -0 -0 -0 -0 -0 -0 -0 -0 -0 -5 -8 -0 -0 -0 -0 -0 -1 -9 -11 -23 -27 -29 -40 -37 -0 -0 -0 -0
-0 -0 -0 -0 -0 -0 -0 -0 -0 -19 -13 -0 -0 -0 -0 -0 -0 -0 -0 -0 -0 -12 -0 -0 -0 -0 -0 -0 -0 -1 -0 -6 -12 -8 -8 -5 -8 -0 -0 -0 -0 -0 -0
-0 -0 -0 -0 -0 -0 -0 -0 -0 -0 -0 -0 -0 -0 -0 -0 -0 -0 -0 -0 -0 -5 -0 -1 -0 -7 -0 -0 -0 -0 -14 -14 -9 -8 -8 -8 -7 -0 -0 -0 -0 -2 -0
-0 -0 -0 -0 -0 -0 -0 -0 -0 -0 -0 -0 -0 -0 -0 -0 -0 -0 -3 -0 -0 -1 -0 -0 -0 -0 -0 -3 -2 -8 -13 -14 -6 -8 -9 -11 -23 -0 -0 -0 -0 -0 -0
-0 -0 -0 -0 -0 -0 -0 -0 -0 -0 -0 -0 -0 -0 -0 -0 -0 -7 -1 -0 -3 -0 -0 -3 -0 -0 -0 -0 -3 -4 -4 -11 -5 -3 -4 -5 -3 -0 -0 -0 -0 -0 -0
-0 -0 -0 -0 -0 -0 -0 -0 -0 -0 -0 -0 -0 -0 -0 -0 -0 -0 -1 -0 -1 -3 -2 -0 -0 -0 -0 -0 -5 -5 -7 -5 -3 -4 -4 -8 -19 -1 -0 -0 -0 -0 -0
-0 -0 -0 -0 -0 -0 -0 -0 -0 -0 -0 -0 -0 -0 -0 -0 -0 -0 -2 -2 -0 -82 -0 -0 -0 -0 -0 -0 -3 -2 -0 -5 -4 -2 -0 -6 -7 -0 -0 -0 -0 -4 -0
-0 -0 -0 -0 -0 -0 -0 -0 -0 -0 -0 -0 -0 -0 -0 -0 -0 -0 -0 -0 -0 -0 -0 -0 -0 -0 -0 -3 -0 -0 -0 -0 -0 -0 -0 -0 -1 -12 -8 -0 -3 -0 -0
-0 -0 -0 -0 -0 -0 -0 -0 -0 -0 -0 -0 -0 -0 -0 -0 -0 -0 -0 -0 -0 -0 -0 -0 -0 -0 -0 -0 -0 -0 -0 -0 -0 -0 -0 -0 -0 -2 -4 -5 -2 -1 -0
-0 -0 -0 -0 -0 -0 -0 -0 -0 -0 -0 -0 -0 -0 -0 -0 -0 -0 -0 -0 -0 -0 -0 -0 -0 -0 -0 -0 -0 -0 -0 -0 -0 -0 -0 -0 -0 -0 -0 -3 -1 -12 -7
-0 -0 -0 -0 -0 -0 -0 -0 -0 -0 -0 -0 -0 -0 -0 -0 -0 -0 -0 -0 -0 -0 -0 -0 -0 -0 -0 -0 -0 -0 -0 -0 -0 -0 -0 -0 -0 -0 -0 -0 -6 -6 -13
-0 -0 -0 -0 -0 -0 -0 -0 -0 -0 -0 -0 -0 -0 -0 -0 -0 -0 -0 -0 -0 -0 -0 -0 -0 -0 -0 -0 -0 -0 -0 -0 -0 -0 -0 -0 -0 -0 -0 -0 -0 -13 -0
-0 -0 -0 -0 -0 -0 -0 -0 -0 -0 -0 -0 -0 -0 -0 -0 -0 -0 -0 -0 -0 -0 -0 -0 -0 -0 -0 -0 -0 -0 -0 -0 -0 -0 -0 -0 -0 -0 -0 -0 -0 -0 -3
-0 -0 -0 -0 -0 -0 -0 -0 -0 -0 -0 -0 -0 -0 -0 -0 -0 -0 -0 -0 -0 -0 -0 -0 -0 -0 -0 -0 -0 -0 -0 -0 -0 -0 -0 -0 -0 -0 -0 -0 -0 -0 -0
-0 -0 -0 -0 -0 -0 -0 -0 -0 -0 -0 -0 -0 -0 -0 -0 -0 -0 -0 -0 -0 -0 -0 -0 -0 -0 -0 -0 -0 -0 -0 -0 -0 -0 -0 -0 -0 -0 -0 -0 -0 -0 -0
Wind_Speed
37 38 38 35 33 31 30 30 29 31 28 26 25 27 32 34 38 41 43 42 43 44 43 41 40 41 nan 46 nan nan nan nan nan nan nan nan 38 40 42 46 47 45 45
36 38 40 37 37 37 36 33 32 31 nan nan nan nan 36 38 41 43 43 43 44 43 42 43 40 nan nan nan nan nan nan nan nan nan nan nan 36 36 39 39 45 nan 45
36 41 42 39 38 37 35 37 37 nan nan 36 37 39 42 42 42 43 44 43 43 nan nan nan nan nan nan nan nan nan nan nan nan nan nan nan nan 40 38 39 40 42 44
38 39 40 39 37 38 38 nan nan nan nan nan 40 41 41 41 42 nan nan nan nan nan nan nan nan nan nan nan nan nan nan nan nan nan nan nan nan nan 43 40 nan 41 41
39 40 41 44 45 42 40 40 39 nan nan 38 39 41 42 nan nan nan nan nan nan nan nan nan nan nan nan nan nan nan nan nan nan 43 nan nan 49 44 nan 41 40 nan 40
46 47 47 47 nan nan nan nan nan nan nan nan nan nan nan nan nan nan nan nan nan nan nan nan nan nan nan nan nan nan nan nan nan 41 nan nan 40 nan 42 44 43 nan nan
54 nan nan nan nan nan nan nan nan nan nan nan nan nan nan nan nan nan nan nan nan nan nan nan nan nan nan nan nan nan nan nan nan nan nan nan nan 34 31 29 34 39 nan
nan nan nan nan nan nan nan nan nan nan nan nan nan nan nan nan nan nan nan nan nan nan nan nan nan nan nan nan nan nan nan nan nan nan nan nan nan nan 29 25 24 nan nan
nan nan nan nan nan nan nan nan nan nan nan nan nan nan nan nan nan nan nan nan nan nan nan nan nan nan nan nan nan nan nan nan nan nan nan nan nan nan nan nan nan nan nan
nan nan nan nan nan nan nan nan nan nan nan nan nan nan nan nan nan nan nan nan nan nan nan nan nan nan nan nan nan nan nan nan nan nan nan nan nan nan nan nan nan nan nan
nan nan nan nan nan nan nan nan nan nan nan nan nan nan nan nan nan nan nan nan nan nan nan nan nan nan nan nan nan nan nan nan nan nan nan nan nan 33 nan nan nan nan nan
nan nan nan nan nan nan nan nan nan nan nan nan nan nan nan nan nan nan nan nan nan nan nan nan nan nan nan nan nan nan nan nan nan nan nan nan nan nan nan nan nan nan nan
nan nan nan nan nan nan nan nan nan nan nan nan nan nan nan nan nan nan nan nan nan nan nan nan nan nan nan nan nan nan nan nan nan nan nan nan nan nan nan nan nan nan nan
nan nan nan nan nan nan nan nan nan nan nan nan nan nan nan nan nan nan nan nan nan nan nan nan nan nan nan nan nan nan nan nan nan nan nan nan nan nan nan nan nan nan nan
nan nan nan nan nan nan nan nan nan nan nan nan nan nan nan nan nan nan nan nan nan nan nan nan nan nan nan nan nan nan nan nan nan nan nan nan nan nan nan nan nan nan nan
nan nan nan nan nan nan nan nan nan nan nan nan nan nan nan nan nan nan nan nan nan nan nan nan nan nan nan nan nan nan nan nan nan nan nan nan nan nan nan nan nan nan nan
nan nan nan nan nan nan nan nan nan nan nan nan nan nan nan nan nan nan nan nan nan nan nan nan nan nan nan nan nan nan nan nan nan nan nan nan nan nan nan nan nan nan nan
nan nan nan nan nan nan nan nan nan nan nan nan nan nan nan nan nan nan nan nan nan nan nan nan nan nan nan nan nan nan nan nan nan nan nan nan nan nan nan nan nan nan nan
nan nan nan nan nan nan nan nan nan nan nan nan nan nan nan nan nan nan nan nan nan nan nan nan nan nan nan nan nan nan nan nan nan nan nan nan nan nan nan nan nan nan nan
nan nan nan nan nan nan nan nan nan nan nan nan nan nan nan nan nan nan nan nan nan nan nan nan nan nan nan nan nan nan nan nan nan nan nan nan nan nan nan nan nan nan nan
nan nan nan nan nan nan nan nan nan nan nan nan nan nan nan nan nan nan nan nan nan nan nan nan nan nan nan nan nan nan nan nan nan nan nan nan nan nan nan nan nan nan nan
nan nan nan nan nan nan nan nan nan nan nan nan nan nan nan nan nan nan nan nan nan nan nan nan nan nan nan nan nan nan nan nan nan nan nan nan nan nan nan nan nan nan nan
nan nan nan nan nan nan nan nan nan nan nan nan nan nan nan nan nan nan nan nan nan nan nan nan nan nan nan nan nan nan nan nan nan nan nan nan nan nan nan nan nan nan nan
nan nan nan nan nan nan nan nan nan nan nan nan nan nan nan nan nan nan nan nan nan nan nan nan nan nan nan nan nan nan nan nan nan nan nan nan nan nan nan nan nan nan nan
nan nan nan nan nan nan nan nan nan nan nan nan nan nan nan nan nan nan nan nan nan nan nan nan nan nan nan nan nan nan nan nan nan nan nan nan nan nan nan nan nan nan nan
nan nan nan nan nan nan nan nan nan nan nan nan nan nan nan nan nan nan nan nan nan nan nan nan nan nan nan nan nan nan nan nan nan nan nan nan nan nan nan nan nan nan nan
Wind_Direction
347 346 347 345 340 329 329 326 317 316 315 311 307 306 302 305 301 299 298 301 302 303 301 302 304 304 nan 300 nan nan nan nan nan nan nan nan 273 265 261 264 263 260 259
337 340 342 335 328 327 327 323 324 323 nan nan nan nan 313 305 297 296 297 301 302 301 300 301 303 nan nan nan nan nan nan nan nan nan nan nan 284 276 272 262 260 nan 256
333 339 340 335 331 328 330 327 327 nan nan 319 316 310 302 294 294 295 301 301 299 nan nan nan nan nan nan nan nan nan nan nan nan nan nan nan nan 277 269 268 262 258 259
330 323 328 334 334 331 328 nan nan nan nan nan 304 300 296 298 301 nan nan nan nan nan nan nan nan nan nan nan nan nan nan nan nan nan nan nan nan nan 275 265 nan 261 256
321 320 322 331 334 329 325 323 315 nan nan 304 304 302 303 nan nan nan nan nan nan nan nan nan nan nan nan nan nan nan nan nan nan 294 nan nan 279 277 nan 265 261 nan 255
324 325 327 326 nan nan nan nan nan nan nan nan nan nan nan nan nan nan nan nan nan nan nan nan nan nan nan nan nan nan nan nan nan 301 nan nan 284 nan 271 266 261 nan nan
319 nan nan nan nan nan nan nan nan nan nan nan nan nan nan nan nan nan nan nan nan nan nan nan nan nan nan nan nan nan nan nan nan nan nan nan nan 286 283 267 266 262 nan
nan nan nan nan nan nan nan nan nan nan nan nan nan nan nan nan nan nan nan nan nan nan nan nan nan nan nan nan nan nan nan nan nan nan nan nan nan nan 289 280 263 nan nan
nan nan nan nan nan nan nan nan nan nan nan nan nan nan nan nan nan nan nan nan nan nan nan nan nan nan nan nan nan nan nan nan nan nan nan nan nan nan nan nan nan nan nan
nan nan nan nan nan nan nan nan nan nan nan nan nan nan nan nan nan nan nan nan nan nan nan nan nan nan nan nan nan nan nan nan nan nan nan nan nan nan nan nan nan nan nan
nan nan nan nan nan nan nan nan nan nan nan nan nan nan nan nan nan nan nan nan nan nan nan nan nan nan nan nan nan nan nan nan nan nan nan nan nan 305 nan nan nan nan nan
nan nan nan nan nan nan nan nan nan nan nan nan nan nan nan nan nan nan nan nan nan nan nan nan nan nan nan nan nan nan nan nan nan nan nan nan nan nan nan nan nan nan nan
nan nan nan nan nan nan nan nan nan nan nan nan nan nan nan nan nan nan nan nan nan nan nan nan nan nan nan nan nan nan nan nan nan nan nan nan nan nan nan nan nan nan nan
nan nan nan nan nan nan nan nan nan nan nan nan nan nan nan nan nan nan nan nan nan nan nan nan nan nan nan nan nan nan nan nan nan nan nan nan nan nan nan nan nan nan nan
nan nan nan nan nan nan nan nan nan nan nan nan nan nan nan nan nan nan nan nan nan nan nan nan nan nan nan nan nan nan nan nan nan nan nan nan nan nan nan nan nan nan nan
nan nan nan nan nan nan nan nan nan nan nan nan nan nan nan nan nan nan nan nan nan nan nan nan nan nan nan nan nan nan nan nan nan nan nan nan nan nan nan nan nan nan nan
nan nan nan nan nan nan nan nan nan nan nan nan nan nan nan nan nan nan nan nan nan nan nan nan nan nan nan nan nan nan nan nan nan nan nan nan nan nan nan nan nan nan nan
nan nan nan nan nan nan nan nan nan nan nan nan nan nan nan nan nan nan nan nan nan nan nan nan nan nan nan nan nan nan nan nan nan nan nan nan nan nan nan nan nan nan nan
nan nan nan nan nan nan nan nan nan nan nan nan nan nan nan nan nan nan nan nan nan nan nan nan nan nan nan nan nan nan nan nan nan nan nan nan nan nan nan nan nan nan nan
nan nan nan nan nan nan nan nan nan nan nan nan nan nan nan nan nan nan nan nan nan nan nan nan nan nan nan nan nan nan nan nan nan nan nan nan nan nan nan nan nan nan nan
nan nan nan nan nan nan nan nan nan nan nan nan nan nan nan nan nan nan nan nan nan nan nan nan nan nan nan nan nan nan nan nan nan nan nan nan nan nan nan nan nan nan nan
nan nan nan nan nan nan nan nan nan nan nan nan nan nan nan nan nan nan nan nan nan nan nan nan nan nan nan nan nan nan nan nan nan nan nan nan nan nan nan nan nan nan nan
nan nan nan nan nan nan nan nan nan nan nan nan nan nan nan nan nan nan nan nan nan nan nan nan nan nan nan nan nan nan nan nan nan nan nan nan nan nan nan nan nan nan nan
nan nan nan nan nan nan nan nan nan nan nan nan nan nan nan nan nan nan nan nan nan nan nan nan nan nan nan nan nan nan nan nan nan nan nan nan nan nan nan nan nan nan nan
nan nan nan nan nan nan nan nan nan nan nan nan nan nan nan nan nan nan nan nan nan nan nan nan nan nan nan nan nan nan nan nan nan nan nan nan nan nan nan nan nan nan nan
nan nan nan nan nan nan nan nan nan nan nan nan nan nan nan nan nan nan nan nan nan nan nan nan nan nan nan nan nan nan nan nan nan nan nan nan nan nan nan nan nan nan nan